• In Belarus
  • List of Countries
  • For 7 days
  • Water Temperature
  • Weather Map
  • Weather Widgets
  • user-avatar
    Login

    Hourly Weather Gunib

    Today, 6 June, Saturday

    Time Temperature Precipitation Wind Pressure Humidity
    00:00 +13°C° 0 mm 1 mps 666 mmHg 93%
    01:00 +12°C° 0 mm 1 mps 666 mmHg 91%
    02:00 +12°C° 0 mm 1 mps 666 mmHg 88%
    03:00 +11°C° 0 mm 1 mps 665 mmHg 86%
    04:00 +12°C° 0 mm 1 mps 666 mmHg 85%
    05:00 +13°C° 0 mm 1 mps 666 mmHg 84%
    06:00 +13°C° 0 mm 0 mps 667 mmHg 83%
    07:00 +15°C° 0 mm 1 mps 667 mmHg 79%
    08:00 +18°C° 0 mm 1 mps 668 mmHg 74%
    09:00 +18°C° 0 mm 2 mps 668 mmHg 68%
    10:00 +19°C° 0.2 mm 2 mps 668 mmHg 67%
    11:00 +19°C° 0.2 mm 2 mps 668 mmHg 66%
    12:00 +20°C° 0.2 mm 3 mps 668 mmHg 65%
    13:00 +20°C° 0.4 mm 2 mps 668 mmHg 65%
    14:00 +20°C° 0.4 mm 2 mps 668 mmHg 66%
    15:00 +20°C° 0.4 mm 2 mps 668 mmHg 66%
    16:00 +20°C° 0.2 mm 2 mps 668 mmHg 68%
    17:00 +20°C° 0.2 mm 1 mps 668 mmHg 70%
    18:00 +20°C° 0.2 mm 1 mps 667 mmHg 72%
    19:00 +18°C° 0 mm 1 mps 667 mmHg 77%
    20:00 +15°C° 0 mm 1 mps 667 mmHg 82%
    21:00 +14°C° 0 mm 1 mps 666 mmHg 86%
    22:00 +13°C° 0 mm 1 mps 666 mmHg 84%
    23:00 +13°C° 0 mm 1 mps 666 mmHg 82%

    Tomorrow, 7 June, Sunday

    Time Temperature Precipitation Wind Pressure Humidity
    00:00 +13°C° 0 mm 2 mps 666 mmHg 80%
    01:00 +12°C° 0 mm 2 mps 666 mmHg 76%
    02:00 +12°C° 0 mm 2 mps 665 mmHg 72%
    03:00 +12°C° 0 mm 2 mps 665 mmHg 67%
    04:00 +13°C° 0 mm 2 mps 666 mmHg 64%
    05:00 +14°C° 0 mm 1 mps 666 mmHg 61%
    06:00 +15°C° 0 mm 1 mps 666 mmHg 58%
    07:00 +18°C° 0 mm 1 mps 666 mmHg 53%
    08:00 +20°C° 0 mm 1 mps 667 mmHg 47%
    09:00 +22°C° 0 mm 1 mps 667 mmHg 42%
    10:00 +23°C° 0 mm 2 mps 667 mmHg 41%
    11:00 +24°C° 0 mm 2 mps 667 mmHg 39%
    12:00 +25°C° 0 mm 2 mps 667 mmHg 38%
    13:00 +25°C° 0 mm 2 mps 667 mmHg 40%
    14:00 +25°C° 0 mm 2 mps 667 mmHg 43%
    15:00 +25°C° 0 mm 2 mps 667 mmHg 45%
    16:00 +24°C° 0.1 mm 2 mps 666 mmHg 52%
    17:00 +23°C° 0.1 mm 2 mps 666 mmHg 59%
    18:00 +22°C° 0.1 mm 1 mps 666 mmHg 67%
    19:00 +21°C° 0.1 mm 1 mps 665 mmHg 71%
    20:00 +19°C° 0.1 mm 1 mps 665 mmHg 75%
    21:00 +16°C° 0.1 mm 2 mps 665 mmHg 79%
    22:00 +16°C° 0 mm 2 mps 664 mmHg 78%
    23:00 +15°C° 0 mm 2 mps 664 mmHg 76%

    Day after tomorrow, 8 June, Monday

    Time Temperature Precipitation Wind Pressure Humidity
    00:00 +15°C° 0 mm 2 mps 664 mmHg 74%
    01:00 +15°C° 0 mm 2 mps 664 mmHg 72%
    02:00 +14°C° 0 mm 2 mps 663 mmHg 69%
    03:00 +14°C° 0 mm 2 mps 663 mmHg 66%
    04:00 +15°C° 0 mm 2 mps 663 mmHg 65%
    05:00 +16°C° 0 mm 2 mps 663 mmHg 64%
    06:00 +18°C° 0 mm 1 mps 664 mmHg 62%
    07:00 +20°C° 0 mm 1 mps 664 mmHg 57%
    08:00 +22°C° 0 mm 1 mps 665 mmHg 52%
    09:00 +24°C° 0 mm 1 mps 665 mmHg 47%
    10:00 +25°C° 0 mm 2 mps 665 mmHg 46%
    11:00 +26°C° 0 mm 2 mps 665 mmHg 46%
    12:00 +27°C° 0 mm 2 mps 665 mmHg 45%
    13:00 +27°C° 0.1 mm 2 mps 665 mmHg 46%
    14:00 +27°C° 0.1 mm 2 mps 665 mmHg 46%
    15:00 +27°C° 0.1 mm 2 mps 664 mmHg 47%
    16:00 +26°C° 0.3 mm 2 mps 664 mmHg 53%
    17:00 +25°C° 0.3 mm 1 mps 664 mmHg 60%
    18:00 +25°C° 0.3 mm 1 mps 664 mmHg 66%
    19:00 +22°C° 0.1 mm 1 mps 663 mmHg 68%
    20:00 +19°C° 0.1 mm 2 mps 663 mmHg 70%
    21:00 +17°C° 0.1 mm 3 mps 663 mmHg 72%
    22:00 +16°C° 0 mm 3 mps 662 mmHg 70%
    23:00 +14°C° 0 mm 3 mps 662 mmHg 67%

    9 June, Tuesday

    Time Temperature Precipitation Wind Pressure Humidity
    00:00 +14°C° 0 mm 3 mps 662 mmHg 65%
    01:00 +13°C° 0 mm 3 mps 662 mmHg 61%
    02:00 +13°C° 0 mm 3 mps 662 mmHg 58%
    03:00 +13°C° 0 mm 3 mps 661 mmHg 54%
    04:00 +15°C° 0 mm 2 mps 662 mmHg 54%
    05:00 +16°C° 0 mm 2 mps 662 mmHg 54%
    06:00 +17°C° 0 mm 2 mps 663 mmHg 54%
    07:00 +21°C° 0 mm 1 mps 663 mmHg 49%
    08:00 +23°C° 0 mm 1 mps 664 mmHg 43%
    09:00 +25°C° 0 mm 1 mps 665 mmHg 38%
    10:00 +26°C° 0 mm 1 mps 665 mmHg 38%
    11:00 +27°C° 0 mm 1 mps 665 mmHg 38%
    12:00 +28°C° 0 mm 2 mps 665 mmHg 39%
    13:00 +28°C° 0.1 mm 2 mps 665 mmHg 40%
    14:00 +28°C° 0.1 mm 2 mps 665 mmHg 42%
    15:00 +28°C° 0.1 mm 2 mps 665 mmHg 44%
    16:00 +27°C° 0.3 mm 2 mps 664 mmHg 52%
    17:00 +26°C° 0.3 mm 1 mps 664 mmHg 60%
    18:00 +25°C° 0.3 mm 1 mps 664 mmHg 68%
    19:00 +23°C° 0.1 mm 2 mps 663 mmHg 70%
    20:00 +20°C° 0.1 mm 2 mps 663 mmHg 72%
    21:00 +18°C° 0.1 mm 2 mps 663 mmHg 74%
    22:00 +17°C° 0 mm 3 mps 663 mmHg 71%
    23:00 +16°C° 0 mm 3 mps 663 mmHg 69%

    10 June, Wednesday

    Time Temperature Precipitation Wind Pressure Humidity
    00:00 +16°C° 0 mm 3 mps 663 mmHg 66%
    01:00 +16°C° 0 mm 3 mps 663 mmHg 64%
    02:00 +15°C° 0 mm 2 mps 662 mmHg 62%
    03:00 +15°C° 0 mm 2 mps 662 mmHg 60%
    04:00 +16°C° 0 mm 2 mps 663 mmHg 60%
    05:00 +18°C° 0 mm 2 mps 663 mmHg 59%
    06:00 +20°C° 0 mm 1 mps 664 mmHg 59%
    07:00 +22°C° 0 mm 1 mps 664 mmHg 55%
    08:00 +24°C° 0 mm 1 mps 665 mmHg 50%
    09:00 +26°C° 0 mm 2 mps 665 mmHg 46%
    10:00 +27°C° 0 mm 2 mps 665 mmHg 45%
    11:00 +27°C° 0 mm 2 mps 665 mmHg 44%
    12:00 +28°C° 0 mm 2 mps 666 mmHg 43%
    13:00 +28°C° 0.2 mm 2 mps 665 mmHg 44%
    14:00 +28°C° 0.2 mm 2 mps 665 mmHg 45%
    15:00 +29°C° 0.2 mm 2 mps 665 mmHg 46%
    16:00 +27°C° 0.3 mm 2 mps 665 mmHg 53%
    17:00 +26°C° 0.3 mm 2 mps 664 mmHg 60%
    18:00 +25°C° 0.3 mm 1 mps 664 mmHg 67%
    19:00 +23°C° 0.1 mm 2 mps 664 mmHg 69%
    20:00 +20°C° 0.1 mm 2 mps 664 mmHg 70%
    21:00 +18°C° 0.1 mm 2 mps 663 mmHg 72%
    22:00 +18°C° 0.3 mm 2 mps 663 mmHg 71%
    23:00 +17°C° 0.3 mm 2 mps 663 mmHg 71%

    11 June, Thursday

    Time Temperature Precipitation Wind Pressure Humidity
    00:00 +17°C° 0.3 mm 2 mps 663 mmHg 70%
    01:00 +17°C° 0 mm 2 mps 663 mmHg 69%
    02:00 +16°C° 0 mm 2 mps 662 mmHg 68%
    03:00 +16°C° 0 mm 2 mps 662 mmHg 67%
    04:00 +17°C° 0 mm 2 mps 662 mmHg 66%
    05:00 +18°C° 0 mm 2 mps 662 mmHg 65%
    06:00 +19°C° 0 mm 2 mps 663 mmHg 64%
    07:00 +21°C° 0 mm 2 mps 663 mmHg 57%
    08:00 +24°C° 0 mm 1 mps 664 mmHg 50%
    09:00 +27°C° 0 mm 1 mps 664 mmHg 42%
    10:00 +28°C° 0 mm 1 mps 664 mmHg 42%
    11:00 +29°C° 0 mm 2 mps 664 mmHg 41%
    12:00 +29°C° 0 mm 2 mps 665 mmHg 40%
    13:00 +29°C° 0.1 mm 3 mps 664 mmHg 44%
    14:00 +28°C° 0.1 mm 3 mps 664 mmHg 48%
    15:00 +27°C° 0.1 mm 4 mps 663 mmHg 53%
    16:00 +26°C° 0.3 mm 3 mps 663 mmHg 57%
    17:00 +25°C° 0.3 mm 3 mps 662 mmHg 62%
    18:00 +23°C° 0.3 mm 2 mps 662 mmHg 66%
    19:00 +21°C° 0.1 mm 2 mps 662 mmHg 64%
    20:00 +19°C° 0.1 mm 2 mps 662 mmHg 61%
    21:00 +18°C° 0.1 mm 3 mps 662 mmHg 59%
    22:00 +18°C° 0 mm 3 mps 661 mmHg 57%
    23:00 +18°C° 0 mm 3 mps 661 mmHg 54%
    Show more